This is the latest recevied weather packets stored in our database for station/object HB9KBJ-8. If no packets are shown the sender has not sent any weather packets the latest 10 day(s).
| Time | Temp. | Humidity | Pressure | Rain* | Wind** | Luminosity | Snow |
|---|---|---|---|---|---|---|---|
| 1777614737 | 7.78° C | 60% | 1025.3 hPa | 0 mm | - | 197 W/m² | - |
| 1777614449 | 7.22° C | 62% | 1025.3 hPa | 0 mm | - | 185 W/m² | - |
| 1777614140 | 6.67° C | 64% | 1025.3 hPa | 0 mm | - | 171 W/m² | - |
| 1777613848 | 6.11° C | 66% | 1025.2 hPa | 0 mm | - | 156 W/m² | - |
| 1777613546 | 5.56° C | 68% | 1025.2 hPa | 0 mm | - | 141 W/m² | - |
| 1777613246 | 5° C | 69% | 1025.2 hPa | 0 mm | - | 125 W/m² | - |
| 1777612937 | 5° C | 70% | 1025.1 hPa | 0 mm | - | 109 W/m² | - |
| 1777612635 | 4.44° C | 71% | 1025.1 hPa | 0 mm | - | 95 W/m² | - |
| 1777612337 | 3.89° C | 72% | 1025.1 hPa | 0 mm | - | 83 W/m² | - |
| 1777612035 | 3.89° C | 72% | 1025 hPa | 0 mm | - | 69 W/m² | - |
| 1777611752 | 3.89° C | 71% | 1024.9 hPa | 0 mm | - | 21 W/m² | - |
| 1777611451 | 3.89° C | 71% | 1024.9 hPa | 0 mm | - | 19 W/m² | - |
| 1777611144 | 3.89° C | 71% | 1024.8 hPa | 0 mm | - | 18 W/m² | - |
| 1777610838 | 3.89° C | 71% | 1024.8 hPa | 0 mm | - | 16 W/m² | - |
| 1777610536 | 3.89° C | 71% | 1024.8 hPa | 0 mm | - | 14 W/m² | - |
| 1777610235 | 3.89° C | 71% | 1024.7 hPa | 0 mm | - | 14 W/m² | - |
| 1777609951 | 3.89° C | 71% | 1024.6 hPa | 0 mm | - | 12 W/m² | - |
| 1777609646 | 3.89° C | 71% | 1024.6 hPa | 0 mm | - | 11 W/m² | - |
| 1777609348 | 3.89° C | 71% | 1024.5 hPa | 0 mm | - | 7 W/m² | - |
| 1777609045 | 3.89° C | 70% | 1024.5 hPa | 0 mm | - | 5 W/m² | - |
| 1777608740 | 3.89° C | 70% | 1024.4 hPa | 0 mm | - | 0 W/m² | - |
| 1777608453 | 4.44° C | 69% | 1024.4 hPa | 0 mm | - | 0 W/m² | - |
| 1777608152 | 4.44° C | 68% | 1024.3 hPa | 0 mm | - | 0 W/m² | - |
| 1777607845 | 4.44° C | 67% | 1024.2 hPa | 0 mm | - | 0 W/m² | - |
| 1777607546 | 4.44° C | 66% | 1024.2 hPa | 0 mm | - | 0 W/m² | - |
* Rain latest hour (hover to see other rain measurements)
** Current wind speed in m/s (hover to see current wind gust speed)